Location: Katowice
(50.2611°N, 19.0242°E)
Time: 22:14:41
(UTC+02:00)

A-11 Canister half - Pass Details

Date: 21 July 2019
Orbit: 1526 x 1683 km, 47.3° (Epoch: 18 August)

Event Time Altitude Azimuth Distance (km) Brightness Sun altitude
Rises 04:43:47 0° 288° (WNW) 4,799 11.2 -2.5°
Reaches altitude 10° 04:47:47 10° 274° (W) 3,784 10.6 -2.0°
Maximum altitude 04:54:28 22° 229° (SW) 2,907 9.9 -1.2°
Drops below altitude 10° 05:01:03 10° 184° (S) 3,703 10.7 -0.3°
Sets 05:04:57 0° 169° (S) 4,670 11.3 0.2°
